Location: Recife
(8.0585°S, 34.8848°W)
Time: 21:16:29
(UTC-03:00)

Vanguard 2 - Pass Details

Date: 15 April 2026
Orbit: 553 x 2895 km, 32.9° (Epoch: 17 May)

Event Time Altitude Azimuth Distance (km) Brightness Sun altitude
Rises 21:16:35 0° 285° (WNW) 5,386 12.3 -59.6°
Reaches altitude 10° 21:19:50 10° 280° (W) 4,661 11.8 -60.4°
Enters shadow 21:26:46 36° 260° (W) 3,476 10.8 -62.1°
